| time (UTC) | temp C | wind direction | speed KPH | gust KPH | rain 1hr cm | rain 24hr cm | rain mn cm | humidity % | barometer mb |
| 20260510100008 | 10 | 176 | 0.0 | 3.2 | 0.00 | 0.00 | 0.00 | 92 | 1007.8 |
| 20260510095007 | 10 | 124 | 1.6 | 3.2 | 0.00 | 0.00 | 0.00 | 92 | 1007.5 |
| 20260510094006 | 10 | 117 | 3.2 | 3.2 | 0.00 | 0.00 | 0.00 | 92 | 1007.8 |
| 20260510093005 | 10 | 237 | 0.0 | 4.8 | 0.00 | 0.00 | 0.00 | 92 | 1007.8 |
| 20260510092005 | 10 | 249 | 1.6 | 4.8 | 0.00 | 0.00 | 0.00 | 92 | 1007.8 |
| 20260510091004 | 10 | 225 | 1.6 | 3.2 | 0.00 | 0.00 | 0.00 | 92 | 1007.5 |
| 20260510090004 | 10 | 132 | 0.0 | 1.6 | 0.00 | 0.00 | 0.00 | 90 | 1007.5 |
| 20260510085003 | 11 | 120 | 1.6 | 1.6 | 0.00 | 0.00 | 0.00 | 90 | 1007.5 |
| 20260510084002 | 11 | 129 | 0.0 | 6.4 | 0.00 | 0.00 | 0.00 | 88 | 1007.1 |
| 20260510083002 | 11 | 145 | 0.0 | 8.0 | 0.00 | 0.00 | 0.00 | 88 | 1007.1 |
| 20260510082001 | 11 | 140 | 4.8 | 8.0 | 0.00 | 0.00 | 0.00 | 87 | 1007.1 |
| 20260510081000 | 11 | 225 | 1.6 | 4.8 | 0.00 | 0.00 | 0.00 | 87 | 1007.5 |
| 20260510080000 | 12 | 85 | 1.6 | 4.8 | 0.00 | 0.00 | 0.00 | 87 | 1007.5 |
| 20260510074959 | 12 | 235 | 3.2 | 4.8 | 0.00 | 0.00 | 0.00 | 86 | 1007.5 |
| 20260510073958 | 12 | 223 | 1.6 | 8.0 | 0.00 | 0.00 | 0.00 | 85 | 1007.8 |
| 20260510072957 | 12 | 183 | 3.2 | 8.0 | 0.00 | 0.00 | 0.00 | 85 | 1007.5 |
| 20260510071957 | 12 | 345 | 1.6 | 9.7 | 0.00 | 0.00 | 0.00 | 84 | 1007.1 |
| 20260510070925 | 12 | 301 | 3.2 | 9.7 | 0.00 | 0.00 | 0.00 | 84 | 1007.1 |
| 20260510065925 | 12 | 118 | 3.2 | 11.3 | 0.00 | 0.00 | 0.00 | 84 | 1007.1 |
| 20260510064924 | 12 | 193 | 1.6 | 11.3 | 0.00 | 0.00 | 0.00 | 83 | 1007.5 |
| 20260510063923 | 12 | 297 | 3.2 | 9.7 | 0.00 | 0.00 | 0.00 | 83 | 1007.5 |
| 20260510062923 | 12 | 177 | 3.2 | 9.7 | 0.00 | 0.00 | 0.00 | 82 | 1007.5 |
| 20260510061922 | 12 | 171 | 1.6 | 8.0 | 0.00 | 0.00 | 0.00 | 82 | 1007.5 |
| 20260510060921 | 12 | 215 | 3.2 | 8.0 | 0.00 | 0.00 | 0.00 | 83 | 1007.5 |
| 20260510055921 | 12 | 285 | 1.6 | 9.7 | 0.00 | 0.00 | 0.00 | 83 | 1007.1 |
| 20260510054920 | 12 | 213 | 3.2 | 9.7 | 0.00 | 0.00 | 0.00 | 82 | 1007.5 |
| 20260510053920 | 12 | 147 | 4.8 | 11.3 | 0.00 | 0.00 | 0.00 | 82 | 1007.5 |
| 20260510052919 | 12 | 157 | 1.6 | 11.3 | 0.00 | 0.00 | 0.00 | 82 | 1007.5 |
| 20260510051918 | 12 | 198 | 1.6 | 11.3 | 0.00 | 0.00 | 0.00 | 81 | 1007.1 |
| 20260510050918 | 12 | 103 | 3.2 | 11.3 | 0.00 | 0.00 | 0.00 | 81 | 1007.1 |
| 20260510045917 | 12 | 132 | 3.2 | 12.9 | 0.00 | 0.00 | 0.00 | 82 | 1007.1 |
| 20260510044916 | 12 | 135 | 4.8 | 12.9 | 0.00 | 0.00 | 0.00 | 81 | 1007.1 |
| 20260510043915 | 12 | 198 | 3.2 | 8.0 | 0.00 | 0.00 | 0.00 | 81 | 1007.1 |
| 20260510042915 | 12 | 121 | 1.6 | 6.4 | 0.00 | 0.00 | 0.00 | 81 | 1007.1 |
| 20260510041914 | 11 | 135 | 3.2 | 8.0 | 0.00 | 0.00 | 0.00 | 82 | 1007.1 |
| 20260510040913 | 11 | 134 | 1.6 | 8.0 | 0.00 | 0.00 | 0.00 | 83 | 1006.8 |
| 20260510035913 | 11 | 115 | 1.6 | 4.8 | 0.00 | 0.00 | 0.00 | 84 | 1006.8 |
| 20260510034912 | 11 | 61 | 3.2 | 4.8 | 0.00 | 0.00 | 0.00 | 85 | 1006.8 |
| 20260510033911 | 11 | 145 | 0.0 | 3.2 | 0.00 | 0.00 | 0.00 | 85 | 1007.1 |
| 20260510032910 | 11 | 281 | 0.0 | 1.6 | 0.00 | 0.00 | 0.00 | 85 | 1007.5 |
| 20260510031909 | 11 | 282 | 0.0 | 1.6 | 0.00 | 0.00 | 0.00 | 85 | 1007.5 |
| 20260510030909 | 11 | 236 | 1.6 | 1.6 | 0.00 | 0.00 | 0.00 | 85 | 1007.5 |
| 20260510025908 | 11 | 102 | 0.0 | 1.6 | 0.00 | 0.00 | 0.00 | 85 | 1007.5 |
| 20260510024908 | 11 | 282 | 0.0 | 3.2 | 0.00 | 0.00 | 0.00 | 86 | 1007.8 |
| 20260510023836 | 11 | 282 | 0.0 | 3.2 | 0.00 | 0.00 | 0.00 | 86 | 1007.5 |
| 20260510022836 | 11 | 276 | 1.6 | 3.2 | 0.00 | 0.00 | 0.00 | 84 | 1007.8 |
| 20260510021835 | 11 | 142 | 0.0 | 1.6 | 0.00 | 0.00 | 0.00 | 82 | 1007.5 |
| 20260510020834 | 11 | 141 | 0.0 | 1.6 | 0.00 | 0.00 | 0.00 | 82 | 1007.5 |
| 20260510015833 | 11 | 277 | 0.0 | 3.2 | 0.00 | 0.00 | 0.00 | 83 | 1007.8 |
| 20260510014833 | 11 | 205 | 0.0 | 3.2 | 0.00 | 0.00 | 0.00 | 84 | 1007.8 |
| 20260510013801 | 11 | 147 | 0.0 | 1.6 | 0.00 | 0.00 | 0.00 | 86 | 1007.8 |
| 20260510012800 | 11 | 139 | 0.0 | 1.6 | 0.00 | 0.00 | 0.00 | 86 | 1007.8 |
| 20260510011729 | 11 | 146 | 0.0 | 3.2 | 0.00 | 0.00 | 0.00 | 86 | 1007.8 |
| 20260510010728 | 11 | 23 | 0.0 | 4.8 | 0.00 | 0.00 | 0.00 | 86 | 1008.1 |
| 20260510005727 | 11 | 140 | 1.6 | 4.8 | 0.00 | 0.00 | 0.00 | 86 | 1007.8 |
| 20260510004727 | 11 | 186 | 0.0 | 1.6 | 0.00 | 0.00 | 0.00 | 86 | 1008.1 |
| 20260510003726 | 11 | 165 | 0.0 | 1.6 | 0.00 | 0.00 | 0.00 | 85 | 1008.1 |
| 20260510002725 | 11 | 259 | 0.0 | 1.6 | 0.00 | 0.00 | 0.00 | 85 | 1008.1 |
| 20260510001725 | 11 | 246 | 0.0 | 1.6 | 0.00 | 0.00 | 0.00 | 85 | 1008.1 |
| 20260510000724 | 11 | 260 | 1.6 | 3.2 | 0.00 | 0.00 | 0.00 | 84 | 1008.1 |
| 20260509235723 | 11 | 269 | 0.0 | 3.2 | 0.00 | 0.00 | 0.00 | 84 | 1008.1 |
| 20260509234723 | 11 | 167 | 0.0 | 3.2 | 0.00 | 0.00 | 0.00 | 83 | 1008.1 |
| 20260509233722 | 11 | 185 | 0.0 | 3.2 | 0.00 | 0.00 | 0.00 | 83 | 1008.1 |
| 20260509232722 | 11 | 184 | 1.6 | 3.2 | 0.00 | 0.00 | 0.00 | 82 | 1008.1 |
| 20260509231721 | 11 | 94 | 1.6 | 4.8 | 0.00 | 0.00 | 0.00 | 82 | 1008.1 |
| 20260509230649 | 11 | 229 | 0.0 | 12.9 | 0.00 | 0.00 | 0.00 | 81 | 1008.1 |
| 20260509225648 | 12 | 233 | 1.6 | 12.9 | 0.00 | 0.00 | 0.00 | 80 | 1008.1 |
| 20260509224648 | 12 | 42 | 0.0 | 6.4 | 0.00 | 0.00 | 0.00 | 80 | 1008.1 |
| 20260509223647 | 12 | 136 | 3.2 | 6.4 | 0.00 | 0.00 | 0.00 | 79 | 1008.1 |
| 20260509222646 | 12 | 127 | 3.2 | 6.4 | 0.00 | 0.00 | 0.00 | 77 | 1008.1 |
| 20260509221646 | 12 | 41 | 0.0 | 6.4 | 0.00 | 0.00 | 0.00 | 76 | 1008.1 |
| 20260509220645 | 12 | 139 | 1.6 | 6.4 | 0.00 | 0.00 | 0.00 | 76 | 1008.5 |
| 20260509215644 | 12 | 140 | 1.6 | 4.8 | 0.00 | 0.00 | 0.00 | 76 | 1008.5 |
| 20260509214541 | 12 | 133 | 1.6 | 4.8 | 0.00 | 0.00 | 0.00 | 76 | 1008.1 |
| 20260509213541 | 12 | 123 | 1.6 | 4.8 | 0.00 | 0.00 | 0.00 | 75 | 1008.5 |
| 20260509212509 | 12 | 150 | 1.6 | 6.4 | 0.00 | 0.00 | 0.00 | 75 | 1008.5 |
| 20260509211509 | 12 | 115 | 0.0 | 6.4 | 0.00 | 0.00 | 0.00 | 75 | 1008.5 |
| 20260509210437 | 12 | 332 | 1.6 | 11.3 | 0.00 | 0.00 | 0.00 | 74 | 1008.8 |
| 20260509205334 | 12 | 153 | 1.6 | 11.3 | 0.00 | 0.00 | 0.00 | 73 | 1008.8 |
| 20260509204333 | 12 | 215 | 1.6 | 8.0 | 0.00 | 0.00 | 0.00 | 74 | 1008.8 |
| 20260509203332 | 12 | 235 | 3.2 | 8.0 | 0.00 | 0.00 | 0.00 | 74 | 1008.8 |
| 20260509202332 | 12 | 275 | 1.6 | 8.0 | 0.00 | 0.00 | 0.00 | 76 | 1008.8 |
| 20260509201331 | 12 | 221 | 1.6 | 8.0 | 0.00 | 0.00 | 0.00 | 75 | 1008.8 |
| 20260509200330 | 12 | 227 | 3.2 | 9.7 | 0.00 | 0.00 | 0.00 | 74 | 1008.8 |
| 20260509195329 | 12 | 190 | 3.2 | 9.7 | 0.00 | 0.00 | 0.00 | 74 | 1008.8 |
| 20260509194329 | 12 | 262 | 6.4 | 11.3 | 0.00 | 0.00 | 0.00 | 74 | 1008.8 |
| 20260509193328 | 12 | 244 | 6.4 | 11.3 | 0.00 | 0.00 | 0.00 | 72 | 1009.1 |
| 20260509192327 | 13 | 263 | 3.2 | 9.7 | 0.00 | 0.00 | 0.00 | 68 | 1009.1 |
| 20260509191326 | 13 | 215 | 4.8 | 9.7 | 0.00 | 0.00 | 0.00 | 67 | 1009.1 |
| 20260509190224 | 13 | 241 | 3.2 | 6.4 | 0.00 | 0.00 | 0.00 | 67 | 1009.1 |
| 20260509185223 | 13 | 218 | 3.2 | 8.0 | 0.00 | 0.00 | 0.00 | 67 | 1009.5 |
| 20260509184223 | 13 | 21 | 1.6 | 11.3 | 0.00 | 0.00 | 0.00 | 64 | 1009.5 |
| 20260509183222 | 13 | 219 | 3.2 | 14.5 | 0.00 | 0.00 | 0.00 | 61 | 1009.5 |
| 20260509182221 | 13 | 199 | 3.2 | 14.5 | 0.00 | 0.00 | 0.00 | 59 | 1009.8 |
| 20260509181220 | 14 | 239 | 6.4 | 12.9 | 0.00 | 0.00 | 0.00 | 57 | 1009.5 |
| 20260509180220 | 14 | 120 | 3.2 | 14.5 | 0.00 | 0.00 | 0.00 | 57 | 1009.5 |
| 20260509175219 | 13 | 265 | 3.2 | 14.5 | 0.00 | 0.00 | 0.00 | 57 | 1009.8 |
| 20260509174147 | 13 | 221 | 6.4 | 12.9 | 0.00 | 0.00 | 0.00 | 56 | 1009.5 |
| 20260509173115 | 12 | 224 | 4.8 | 14.5 | 0.00 | 0.00 | 0.00 | 58 | 1009.8 |
| 20260509172044 | 12 | 237 | 4.8 | 17.7 | 0.00 | 0.00 | 0.00 | 59 | 1009.8 |
| 20260509171043 | 13 | 227 | 4.8 | 17.7 | 0.00 | 0.00 | 0.00 | 58 | 1009.8 |
| 20260509170042 | 13 | 247 | 4.8 | 14.5 | 0.00 | 0.00 | 0.00 | 58 | 1009.8 |
| 20260509164939 | 13 | 243 | 6.4 | 12.9 | 0.00 | 0.00 | 0.00 | 56 | 1010.2 |
| 20260509163938 | 13 | 249 | 4.8 | 12.9 | 0.00 | 0.00 | 0.00 | 55 | 1010.2 |
| 20260509162938 | 13 | 242 | 6.4 | 16.1 | 0.00 | 0.00 | 0.00 | 54 | 1010.2 |
| 20260509161938 | 13 | 243 | 4.8 | 16.1 | 0.00 | 0.00 | 0.00 | 52 | 1010.5 |
| 20260509160834 | 13 | 251 | 4.8 | 16.1 | 0.00 | 0.00 | 0.00 | 50 | 1010.5 |
| 20260509155834 | 13 | 258 | 6.4 | 17.7 | 0.00 | 0.00 | 0.00 | 51 | 1010.5 |
| 20260509154731 | 14 | 249 | 4.8 | 17.7 | 0.00 | 0.00 | 0.00 | 51 | 1010.8 |
| 20260509153730 | 15 | 267 | 8.0 | 14.5 | 0.00 | 0.00 | 0.00 | 48 | 1010.8 |
| 20260509152730 | 14 | 140 | 1.6 | 11.3 | 0.00 | 0.00 | 0.00 | 46 | 1011.2 |
| 20260509151729 | 14 | 248 | 6.4 | 11.3 | 0.00 | 0.00 | 0.00 | 44 | 1011.2 |
| 20260509150728 | 14 | 260 | 3.2 | 9.7 | 0.00 | 0.00 | 0.00 | 46 | 1011.2 |
| 20260509145727 | 13 | 251 | 4.8 | 9.7 | 0.00 | 0.00 | 0.00 | 47 | 1011.2 |
| 20260509144727 | 13 | 233 | 4.8 | 9.7 | 0.00 | 0.00 | 0.00 | 46 | 1011.2 |
| 20260509143726 | 13 | 248 | 4.8 | 9.7 | 0.00 | 0.00 | 0.00 | 47 | 1011.5 |
| 20260509142725 | 13 | 169 | 1.6 | 9.7 | 0.00 | 0.00 | 0.00 | 47 | 1011.5 |
| 20260509141724 | 13 | 193 | 3.2 | 11.3 | 0.00 | 0.00 | 0.00 | 49 | 1011.5 |
| 20260509140724 | 13 | 254 | 4.8 | 11.3 | 0.00 | 0.00 | 0.00 | 50 | 1011.5 |
| 20260509135723 | 12 | 260 | 4.8 | 11.3 | 0.00 | 0.00 | 0.00 | 50 | 1011.5 |
| 20260509134722 | 12 | 256 | 4.8 | 9.7 | 0.00 | 0.00 | 0.00 | 52 | 1011.5 |
| 20260509133721 | 11 | 226 | 1.6 | 11.3 | 0.00 | 0.00 | 0.00 | 58 | 1011.5 |
| 20260509132721 | 11 | 253 | 3.2 | 11.3 | 0.00 | 0.00 | 0.00 | 59 | 1011.5 |
| 20260509131720 | 11 | 258 | 4.8 | 9.7 | 0.00 | 0.00 | 0.00 | 59 | 1011.9 |
| 20260509130648 | 10 | 260 | 4.8 | 8.0 | 0.00 | 0.00 | 0.00 | 58 | 1011.9 |
| 20260509125648 | 10 | 263 | 1.6 | 6.4 | 0.00 | 0.00 | 0.00 | 59 | 1012.2 |
| 20260509124647 | 10 | 249 | 3.2 | 6.4 | 0.00 | 0.00 | 0.00 | 60 | 1012.2 |
| 20260509123615 | 9 | 286 | 1.6 | 6.4 | 0.00 | 0.00 | 0.00 | 60 | 1012.2 |
| 20260509122615 | 8 | 236 | 3.2 | 6.4 | 0.00 | 0.00 | 0.00 | 61 | 1012.2 |
| 20260509121614 | 8 | 139 | 1.6 | 4.8 | 0.00 | 0.00 | 0.00 | 62 | 1012.2 |
| 20260509120613 | 7 | 141 | 3.2 | 4.8 | 0.00 | 0.00 | 0.00 | 65 | 1012.2 |
| 20260509115613 | 7 | 281 | 0.0 | 4.8 | 0.00 | 0.00 | 0.00 | 67 | 1012.5 |
| 20260509114612 | 6 | 160 | 0.0 | 4.8 | 0.00 | 0.00 | 0.00 | 69 | 1012.5 |
| 20260509113540 | 5 | 18 | 1.6 | 1.6 | 0.00 | 0.00 | 0.00 | 71 | 1012.5 |
| 20260509112539 | 5 | 350 | 0.0 | 1.6 | 0.00 | 0.00 | 0.00 | 71 | 1012.5 |
| 20260509111539 | 5 | 44 | 1.6 | 1.6 | 0.00 | 0.00 | 0.00 | 74 | 1012.5 |
| 20260509110538 | 3 | 110 | 0.0 | 0.0 | 0.00 | 0.00 | 0.00 | 80 | 1012.5 |
| 20260509105538 | 2 | 109 | 0.0 | 0.0 | 0.00 | 0.00 | 0.00 | 84 | 1012.5 |
| 20260509104536 | 2 | 110 | 0.0 | 0.0 | 0.00 | 0.00 | 0.00 | 84 | 1012.5 |
| 20260509103434 | 1 | 110 | 0.0 | 1.6 | 0.00 | 0.00 | 0.00 | 84 | 1012.5 |
| 20260509102433 | 1 | 110 | 0.0 | 1.6 | 0.00 | 0.00 | 0.00 | 83 | 1012.5 |
| 20260509101432 | 1 | 109 | 1.6 | 1.6 | 0.00 | 0.00 | 0.00 | 83 | 1012.2 |